Location: Waning Moon II Observatory
(30.3730°N, 89.7620°W)
Time: 23:07:42
(UTC-05:00)

Meteor 1-21 - Visible Passes

Search period start: 16 October 2017 00:00
Search period end: 26 October 2017 00:00
Orbit: 843 x 889 km, 81.2° (Epoch: 16 October)

Date Brightness Start Highest point End Pass type
(mag) Time Alt. Az. Time Alt. Az. Time Alt. Az.
16 Oct 5.8 04:28:25 28° NNE 04:28:25 28° NNE 04:31:00 10° NNE visible
17 Oct 6.2 04:22:04 19° NNE 04:22:04 19° NNE 04:23:38 10° NNE visible
18 Oct 6.6 04:15:34 14° NNE 04:15:34 14° NNE 04:16:18 10° N visible
